This is the latest recevied weather packets stored in our database for station/object G1SCQ. If no packets are shown the sender has not sent any weather packets the latest 1 day(s).
| Time | Temp. | Humidity | Pressure | Rain* | Wind** | Luminosity | Snow |
|---|---|---|---|---|---|---|---|
| 1778016963 | 8.33° C | 83% | 1013.9 hPa | 0 mm | 0.45 m/s, 56° | 0 W/m² | - |
| 1778016423 | 8.33° C | 85% | 1014.1 hPa | 0 mm | 0.45 m/s, 43° | 0 W/m² | - |
| 1778015886 | 8.33° C | 85% | 1014 hPa | 0 mm | 0.45 m/s, 48° | 0 W/m² | - |
| 1778015346 | 8.33° C | 86% | 1013.9 hPa | 0 mm | 0.45 m/s, 39° | 0 W/m² | - |
| 1778014806 | 8.89° C | 85% | 1014 hPa | 0 mm | 0.45 m/s, 70° | 0 W/m² | - |
| 1778014446 | 8.89° C | 85% | 1014 hPa | 0 mm | 0.45 m/s, 76° | 0 W/m² | - |
| 1778013906 | 8.89° C | 84% | 1013.9 hPa | 0 mm | 0.45 m/s, 58° | 0 W/m² | - |
| 1778013366 | 8.89° C | 83% | 1013.8 hPa | 0 mm | 0.45 m/s, 86° | 0 W/m² | - |
| 1778012826 | 8.89° C | 84% | 1013.8 hPa | 0 mm | 0.45 m/s, 50° | 0 W/m² | - |
| 1778012286 | 8.89° C | 85% | 1014 hPa | 0 mm | 0.45 m/s, 14° | 0 W/m² | - |
| 1778011746 | 8.89° C | 87% | 1013.8 hPa | 0 mm | 0.45 m/s, 67° | 0 W/m² | - |
| 1778011206 | 8.89° C | 87% | 1013.8 hPa | 0 mm | 0.89 m/s, 71° | 0 W/m² | - |
| 1778010846 | 8.89° C | 87% | 1013.7 hPa | 0 mm | 0.89 m/s, 79° | 0 W/m² | - |
| 1778010306 | 8.89° C | 88% | 1013.8 hPa | 0 mm | 0.45 m/s, 48° | 0 W/m² | - |
| 1778009765 | 8.89° C | 88% | 1013.8 hPa | 0 mm | 0.45 m/s, 58° | 0 W/m² | - |
| 1778009225 | 9.44° C | 87% | 1013.5 hPa | 0 mm | 0.89 m/s, 97° | 2 W/m² | - |
| 1778008685 | 9.44° C | 87% | 1013.5 hPa | 0 mm | 0.45 m/s, 57° | 4 W/m² | - |
| 1778008146 | 9.44° C | 88% | 1013.2 hPa | 0 mm | 0.89 m/s, 46° | 5 W/m² | - |
| 1778007605 | 9.44° C | 88% | 1013.4 hPa | 0 mm | 0.89 m/s, 68° | 8 W/m² | - |
| 1778007245 | 9.44° C | 88% | 1013.2 hPa | 0 mm | 0.89 m/s, 88° | 14 W/m² | - |
| 1778006706 | 9.44° C | 88% | 1013.1 hPa | 0 mm | 0.45 m/s, 56° | 14 W/m² | - |
| 1778006165 | 10° C | 87% | 1013.1 hPa | 0 mm | 0.45 m/s, 47° | 25 W/m² | - |
| 1778005625 | 10° C | 86% | 1013 hPa | 0 mm | 0.45 m/s, 54° | 32 W/m² | - |
| 1778005085 | 10° C | 86% | 1012.9 hPa | 0 mm | 0.45 m/s, 59° | 29 W/m² | - |
| 1778004546 | 10° C | 85% | 1012.9 hPa | 0 mm | 0.45 m/s, 46° | 22 W/m² | - |
* Rain latest hour (hover to see other rain measurements)
** Current wind speed in m/s (hover to see current wind gust speed)